Regional Weather Roundup
Issued by NWS

Home | Current Version | Previous Version | Text Only | Print | Product List | Glossary On
Versions: 1 2 3 4 5 6 7 8 9 10 11 12 13 14 15 16 17 18 19 20 21 22 23 24 25 26 27 28
000
ASUS46 KPQR 280310
RWROR

OREGON REGIONAL WEATHER ROUNDUP
NATIONAL WEATHER SERVICE PORTLAND OR
800 PM PDT TUE JUN 27 2017

NOTE: "FAIR" INDICATES FEW OR NO CLOUDS BELOW 12,000 FEET WITH
NO SIGNIFICANT WEATHER AND/OR OBSTRUCTIONS TO VISIBILITY.

ORZ001>013-280400-
NORTHWEST OREGON


CITY           SKY/WX    TMP DP  RH WIND       PRES   REMARKS
ASTORIA        CLOUDY    60  49  66 W8        30.03S
NEWPORT        CLEAR     59  52  77 N7        30.07S
PORTLAND       PTCLDY    74  52  46 N7        29.94S
VANCOUVER WA   CLEAR     75  53  46 N7        29.94S
SCAPPOOSE      CLEAR     71  53  52 N9        29.95R
HILLSBORO      MOCLDY    74  53  48 NW8       29.94S
AURORA         CLEAR     75  53  46 CALM      29.95F
MCMINNVILLE    CLEAR     68  51  54 SW9       29.96S
SALEM          CLEAR     71  50  47 NW7       29.95S
CORVALLIS      CLEAR     66  50  55 NW8       29.98S
EUGENE         PTCLDY    72  53  51 N5        29.96F
$$

ORZ021-028-280400-
SOUTHWEST OREGON


CITY           SKY/WX    TMP DP  RH WIND       PRES   REMARKS
NORTH BEND     CLOUDY    61  52  72 N12       30.05S
BROOKINGS      CLEAR     59  53  80 SE8       29.97F
ROSEBURG       CLEAR     70  55  59 NW9       29.97R
SEXTON SUMMIT  CLEAR     61  53  75 VRB7      30.01S
GRANTS PASS    FAIR      77  54  44 NW15G22   29.94R
MEDFORD        CLEAR     82  52  35 N14       29.88R
$$

ORZ014>016-041-280400-
COLUMBIA GORGE


CITY           SKY/WX    TMP DP  RH WIND       PRES   REMARKS
TROUTDALE      CLEAR     74  51  44 NW3       29.93F
HOOD RIVER     PTCLDY    70  45  40 W5        29.90R
THE DALLES     PTCLDY    76  48  37 NW14      29.82S
$$

ORZ029>031-041-044-049-050-061>064-502-503-505>511-280400-
EASTERN OREGON


CITY           SKY/WX    TMP DP  RH WIND       PRES   REMARKS
MADRAS         PTCLDY    70  32  24 NW18G26   29.92R
REDMOND        PTCLDY    74  30  19 NW14      29.91R
BEND           PTCLDY    73  41  31 NW15G22   29.94R
PRINEVILLE     PTCLDY    73  36  25 N13       29.93R
KLAMATH FALLS  CLEAR     73  38  27 NW12      29.96F
LAKEVIEW       CLEAR     73  32  22 W9        29.97S
HERMISTON      CLOUDY    82  44  26 W10       29.77S
PENDLETON      MOCLDY    71  51  49 N5        29.80F
JOHN DAY       CLEAR     76  42  30 CALM      29.89R
MEACHAM        PTCLDY    65  35  33 CALM      29.93R
LA GRANDE      CLEAR     73  41  31 NW8       29.86R
BAKER CITY     PTCLDY    72  43  35 N13       29.87R
BURNS          CLEAR     75  37  25 W10       29.87F
ROME             N/A     86  28  12 W14       29.84R
ONTARIO        PTCLDY    82  48  30 NW10      29.74R
$$




USA.gov is the U.S. government's official web portal to all federal, state and local government web resources and services.